{"data":{"norad_id":62633,"intl_designator":"2025-009AA","name":"FLOCK 4G-26","alt_names":[],"object_type":"PAYLOAD","status":"ACTIVE","operator":null,"country":"US","launch_date":"2025-01-14","launch_site_code":"AFWTR","launch_vehicle":null,"mission":null,"orbit_class":"UNKNOWN","rcs_meters":null,"size_class":null,"mass_kg":null,"dimensions":null,"purposes":["earth_obs"],"wikipedia_slug":null,"has_3d_model":false,"image_url":null,"decayed_at":null,"tle_current":{"epoch":"2026-05-25T03:45:01.625184Z","epoch_age_seconds":71918,"freshness":"FRESH","line1":"1 62633U 25009AA  26145.15626881  .00010162  00000+0  36476-3 0  9999","line2":"2 62633  97.4015 227.2605 0003935  50.2670 309.8916 15.28867786 75390","mean_motion":15.28867786,"eccentricity":0.0003935,"inclination_deg":97.4015,"raan_deg":227.2605,"arg_perigee_deg":50.267,"mean_anomaly_deg":309.8916,"bstar":0.00036476,"rev_number":7539,"period_min":94.187346557121,"perigee_km":476.49734801016,"apogee_km":481.8940688517,"semimajor_km":6857.3327084309,"source":"CELESTRAK","updated_at":"2026-05-25T13:38:13.337559Z"}}}